| time (UTC) | temp F | wind direction | speed knots | gust knots | rain 1hr in | rain 24hr in | rain mn in | humidity % | barometer mb |
| 20260504050012 | 59 | 343 | 3.5 | 7.0 | 0.00 | 0.00 | 0.00 | 62 | 1004.4 |
| 20260504044508 | 59 | 331 | 4.3 | 7.8 | 0.00 | 0.00 | 0.00 | 61 | 1004.3 |
| 20260504043010 | 60 | 327 | 3.5 | 7.8 | 0.00 | 0.00 | 0.00 | 60 | 1004.3 |
| 20260504041505 | 60 | 350 | 2.6 | 7.0 | 0.00 | 0.00 | 0.00 | 60 | 1004.3 |
| 20260504040007 | 60 | 314 | 2.6 | 5.2 | 0.00 | 0.00 | 0.00 | 59 | 1004.4 |
| 20260504034507 | 61 | 294 | 2.6 | 7.0 | 0.00 | 0.00 | 0.00 | 59 | 1004.4 |
| 20260504033004 | 61 | 303 | 3.5 | 7.0 | 0.00 | 0.00 | 0.00 | 58 | 1004.5 |
| 20260504031533 | 61 | 330 | 3.5 | 7.0 | 0.00 | 0.00 | 0.00 | 58 | 1004.6 |
| 20260504030033 | 61 | 324 | 2.6 | 4.3 | 0.00 | 0.00 | 0.00 | 58 | 1004.7 |
| 20260504024507 | 62 | 319 | 1.7 | 3.5 | 0.00 | 0.00 | 0.00 | 56 | 1004.8 |
| 20260504023002 | 62 | 333 | 2.6 | 5.2 | 0.00 | 0.00 | 0.00 | 55 | 1004.8 |
| 20260504021608 | 62 | 323 | 1.7 | 5.2 | 0.00 | 0.00 | 0.00 | 54 | 1004.6 |
| 20260504020059 | 63 | 323 | 2.6 | 5.2 | 0.00 | 0.00 | 0.00 | 53 | 1004.6 |
| 20260504014559 | 63 | 335 | 0.9 | 2.6 | 0.00 | 0.00 | 0.00 | 52 | 1004.5 |
| 20260504013058 | 64 | 336 | 1.7 | 4.3 | 0.00 | 0.00 | 0.00 | 51 | 1004.4 |
| 20260504011528 | 65 | 335 | 1.7 | 3.5 | 0.00 | 0.00 | 0.00 | 50 | 1004.1 |
| 20260504010027 | 65 | 341 | 3.5 | 5.2 | 0.00 | 0.00 | 0.00 | 49 | 1004.0 |
| 20260504004524 | 66 | 347 | 3.5 | 7.8 | 0.00 | 0.00 | 0.00 | 47 | 1004.0 |
| 20260504003035 | 67 | 335 | 4.3 | 7.8 | 0.00 | 0.00 | 0.00 | 46 | 1004.1 |
| 20260504001521 | 67 | 345 | 3.5 | 9.6 | 0.00 | 0.00 | 0.00 | 45 | 1004.1 |
| 20260504000020 | 68 | 12 | 5.2 | 12.2 | 0.00 | 0.00 | 0.00 | 44 | 1004.2 |
| 20260503234519 | 68 | 44 | 6.1 | 10.4 | 0.00 | 0.00 | 0.00 | 43 | 1004.1 |
| 20260503233017 | 68 | 21 | 8.7 | 14.8 | 0.00 | 0.00 | 0.00 | 43 | 1004.2 |
| 20260503231515 | 68 | 29 | 7.8 | 15.6 | 0.00 | 0.00 | 0.00 | 43 | 1004.5 |
| 20260503230013 | 68 | 350 | 6.1 | 16.5 | 0.00 | 0.00 | 0.00 | 43 | 1004.4 |
| 20260503224524 | 69 | 21 | 7.0 | 16.5 | 0.00 | 0.00 | 0.00 | 43 | 1004.5 |
| 20260503223011 | 68 | 323 | 7.8 | 18.2 | 0.00 | 0.00 | 0.00 | 43 | 1004.4 |
| 20260503221507 | 68 | 347 | 8.7 | 15.6 | 0.00 | 0.00 | 0.00 | 43 | 1004.5 |
| 20260503220009 | 67 | 315 | 11.3 | 20.9 | 0.00 | 0.00 | 0.00 | 44 | 1004.7 |
| 20260503214501 | 66 | 308 | 10.4 | 17.4 | 0.00 | 0.00 | 0.00 | 44 | 1004.9 |
| 20260503213059 | 66 | 347 | 7.0 | 16.5 | 0.00 | 0.00 | 0.00 | 45 | 1005.1 |
| 20260503211558 | 66 | 308 | 7.0 | 23.5 | 0.00 | 0.00 | 0.00 | 44 | 1005.3 |
| 20260503210053 | 66 | 312 | 10.4 | 21.7 | 0.00 | 0.00 | 0.00 | 44 | 1005.8 |
| 20260503204552 | 65 | 338 | 13.9 | 22.6 | 0.00 | 0.00 | 0.00 | 43 | 1005.9 |
| 20260503203049 | 65 | 338 | 16.5 | 32.2 | 0.00 | 0.00 | 0.00 | 43 | 1006.2 |
| 20260503201546 | 65 | 338 | 13.9 | 25.2 | 0.00 | 0.00 | 0.00 | 45 | 1006.4 |
| 20260503200039 | 62 | 331 | 7.8 | 18.2 | 0.00 | 0.00 | 0.00 | 52 | 1007.0 |
| 20260503194537 | 62 | 326 | 9.6 | 20.0 | 0.00 | 0.00 | 0.00 | 53 | 1007.4 |
| 20260503193033 | 61 | 329 | 10.4 | 20.9 | 0.00 | 0.00 | 0.00 | 51 | 1007.7 |
| 20260503191531 | 60 | 293 | 10.4 | 20.0 | 0.00 | 0.00 | 0.00 | 54 | 1007.7 |
| 20260503190028 | 60 | 319 | 13.0 | 25.2 | 0.00 | 0.00 | 0.00 | 50 | 1007.8 |
| 20260503184626 | 59 | 325 | 10.4 | 24.3 | 0.00 | 0.00 | 0.00 | 52 | 1007.9 |
| 20260503183025 | 58 | 314 | 14.8 | 22.6 | 0.00 | 0.00 | 0.00 | 50 | 1007.9 |
| 20260503181521 | 59 | 308 | 11.3 | 22.6 | 0.00 | 0.00 | 0.00 | 52 | 1008.2 |
| 20260503180052 | 58 | 314 | 13.0 | 20.9 | 0.00 | 0.00 | 0.00 | 53 | 1008.5 |
| 20260503174546 | 57 | 311 | 7.8 | 21.7 | 0.00 | 0.00 | 0.00 | 57 | 1009.0 |
| 20260503173040 | 57 | 296 | 10.4 | 25.2 | 0.00 | 0.00 | 0.00 | 58 | 1009.4 |
| 20260503171559 | 55 | 283 | 11.3 | 20.0 | 0.00 | 0.00 | 0.00 | 63 | 1010.1 |
| 20260503081517 | 48 | 343 | 4.3 | 7.8 | 0.00 | 0.00 | 0.00 | 51 | 1013.7 |
| 20260503071513 | 48 | 331 | 5.2 | 8.7 | 0.00 | 0.00 | 0.00 | 52 | 1014.0 |